• In India
  • List of Countries
  • For 7 days
  • Water Temperature
  • Satellite Maps
  • Weather Map
  • Weather Widgets
  • user-avatar
    Login

    Hourly Weather Osieczyna

    Today, 19 February, Tuesday

    Time Temperature Precipitation Wind Pressure Humidity
    00:00 +4°C° 0 mm 3 mps 747 mmHg 66%
    01:00 +4°C° 0 mm 4 mps 747 mmHg 65%
    02:00 +4°C° 0 mm 4 mps 747 mmHg 66%
    03:00 +3°C° 0 mm 4 mps 746 mmHg 67%
    04:00 +3°C° 0 mm 4 mps 746 mmHg 68%
    05:00 +3°C° 0 mm 3 mps 746 mmHg 69%
    06:00 +3°C° 0 mm 3 mps 746 mmHg 70%
    07:00 +2°C° 0 mm 3 mps 746 mmHg 70%
    08:00 +3°C° 0 mm 3 mps 746 mmHg 65%
    09:00 +5°C° 0 mm 3 mps 746 mmHg 60%
    10:00 +7°C° 0 mm 4 mps 746 mmHg 56%
    11:00 +8°C° 0 mm 4 mps 746 mmHg 54%
    12:00 +9°C° 0 mm 5 mps 746 mmHg 53%
    13:00 +12°C° 0 mm 5 mps 746 mmHg 51%
    14:00 +10°C° 0 mm 5 mps 746 mmHg 55%
    15:00 +11°C° 0 mm 4 mps 746 mmHg 59%
    16:00 +10°C° 0 mm 4 mps 745 mmHg 62%
    17:00 +8°C° 0.1 mm 4 mps 746 mmHg 68%
    18:00 +7°C° 0.1 mm 4 mps 746 mmHg 73%
    19:00 +7°C° 0.1 mm 3 mps 746 mmHg 79%
    20:00 +6°C° 0 mm 4 mps 746 mmHg 80%
    21:00 +5°C° 0 mm 4 mps 746 mmHg 81%
    22:00 +5°C° 0 mm 4 mps 746 mmHg 82%
    23:00 +3°C° 0 mm 5 mps 747 mmHg 80%

    Tomorrow, 20 February, Wednesday

    Time Temperature Precipitation Wind Pressure Humidity
    00:00 +3°C° 0 mm 5 mps 747 mmHg 79%
    01:00 +3°C° 0 mm 5 mps 747 mmHg 77%
    02:00 +2°C° 0 mm 5 mps 747 mmHg 79%
    03:00 +2°C° 0 mm 5 mps 747 mmHg 81%
    04:00 +2°C° 0 mm 5 mps 747 mmHg 82%
    05:00 +2°C° 0 mm 5 mps 748 mmHg 83%
    06:00 +1°C° 0 mm 5 mps 748 mmHg 85%
    07:00 +1°C° 0 mm 5 mps 748 mmHg 86%
    08:00 +2°C° 0 mm 5 mps 748 mmHg 81%
    09:00 +3°C° 0 mm 6 mps 749 mmHg 76%
    10:00 +4°C° 0 mm 6 mps 749 mmHg 72%
    11:00 +5°C° 0 mm 6 mps 749 mmHg 68%
    12:00 +5°C° 0 mm 6 mps 750 mmHg 65%
    13:00 +7°C° 0 mm 6 mps 750 mmHg 62%
    14:00 +7°C° 0 mm 6 mps 750 mmHg 62%
    15:00 +7°C° 0 mm 5 mps 750 mmHg 63%
    16:00 +7°C° 0 mm 5 mps 750 mmHg 63%
    17:00 +6°C° 0 mm 4 mps 750 mmHg 68%
    18:00 +5°C° 0 mm 3 mps 751 mmHg 72%
    19:00 +5°C° 0 mm 3 mps 751 mmHg 77%
    20:00 +5°C° 0 mm 3 mps 751 mmHg 78%
    21:00 +4°C° 0 mm 3 mps 751 mmHg 79%
    22:00 +4°C° 0 mm 3 mps 752 mmHg 80%
    23:00 +4°C° 0 mm 3 mps 752 mmHg 80%

    Day after tomorrow, 21 February, Thursday

    Time Temperature Precipitation Wind Pressure Humidity
    00:00 +3°C° 0 mm 3 mps 752 mmHg 80%
    01:00 +3°C° 0 mm 3 mps 752 mmHg 80%
    02:00 +3°C° 0 mm 3 mps 752 mmHg 79%
    03:00 +3°C° 0 mm 3 mps 752 mmHg 77%
    04:00 +4°C° 0 mm 3 mps 752 mmHg 75%
    05:00 +4°C° 0.1 mm 4 mps 752 mmHg 76%
    06:00 +4°C° 0.1 mm 4 mps 752 mmHg 77%
    07:00 +4°C° 0.1 mm 4 mps 752 mmHg 77%
    08:00 +5°C° 0.2 mm 4 mps 752 mmHg 75%
    09:00 +5°C° 0.2 mm 5 mps 752 mmHg 73%
    10:00 +6°C° 0.2 mm 5 mps 752 mmHg 72%
    11:00 +7°C° 0.1 mm 6 mps 752 mmHg 68%
    12:00 +8°C° 0.1 mm 6 mps 751 mmHg 65%
    13:00 +9°C° 0.1 mm 6 mps 751 mmHg 62%
    14:00 +9°C° 0 mm 6 mps 751 mmHg 63%
    15:00 +8°C° 0 mm 5 mps 751 mmHg 64%
    16:00 +8°C° 0 mm 5 mps 750 mmHg 65%
    17:00 +8°C° 0.6 mm 5 mps 750 mmHg 71%
    18:00 +7°C° 0.6 mm 5 mps 750 mmHg 76%
    19:00 +5°C° 0.6 mm 6 mps 750 mmHg 81%
    20:00 +5°C° 0.4 mm 6 mps 750 mmHg 83%
    21:00 +5°C° 0.4 mm 6 mps 750 mmHg 85%
    22:00 +5°C° 0.4 mm 7 mps 750 mmHg 87%
    23:00 +5°C° 0.6 mm 7 mps 750 mmHg 88%

    22 February, Friday

    Time Temperature Precipitation Wind Pressure Humidity
    00:00 +5°C° 0.6 mm 7 mps 750 mmHg 89%
    01:00 +5°C° 0.6 mm 7 mps 751 mmHg 90%
    02:00 +5°C° 0.5 mm 7 mps 751 mmHg 89%
    03:00 +5°C° 0.5 mm 7 mps 751 mmHg 89%
    04:00 +5°C° 0.5 mm 7 mps 752 mmHg 89%
    05:00 +4°C° 0.1 mm 7 mps 753 mmHg 88%
    06:00 +3°C° 0.1 mm 7 mps 754 mmHg 86%
    07:00 +2°C° 0.1 mm 7 mps 755 mmHg 85%
    08:00 +2°C° 0 mm 6 mps 756 mmHg 82%
    09:00 +1°C° 0 mm 5 mps 757 mmHg 80%
    10:00 0°C° 0 mm 4 mps 757 mmHg 77%
    11:00 +1°C° 0 mm 4 mps 758 mmHg 71%
    12:00 +1°C° 0 mm 4 mps 759 mmHg 66%
    13:00 +1°C° 0 mm 4 mps 759 mmHg 60%
    14:00 +1°C° 0 mm 4 mps 760 mmHg 58%
    15:00 +1°C° 0 mm 4 mps 760 mmHg 57%
    16:00 +1°C° 0 mm 4 mps 761 mmHg 55%
    17:00 +1°C° 0 mm 3 mps 761 mmHg 59%
    18:00 0°C° 0 mm 3 mps 762 mmHg 64%
    19:00 -1°C° 0 mm 2 mps 762 mmHg 68%
    20:00 -2°C° 0 mm 2 mps 762 mmHg 67%
    21:00 -2°C° 0 mm 2 mps 763 mmHg 67%
    22:00 -2°C° 0 mm 2 mps 763 mmHg 66%
    23:00 -2°C° 0 mm 2 mps 763 mmHg 64%

    23 February, Saturday

    Time Temperature Precipitation Wind Pressure Humidity
    00:00 0°C° 0 mm 1 mps 763 mmHg 63%
    01:00 0°C° 0 mm 1 mps 763 mmHg 61%
    02:00 -1°C° 0 mm 1 mps 763 mmHg 61%
    03:00 -1°C° 0 mm 1 mps 763 mmHg 62%
    04:00 -1°C° 0 mm 1 mps 763 mmHg 62%
    05:00 -1°C° 0 mm 1 mps 763 mmHg 62%
    06:00 -1°C° 0 mm 1 mps 763 mmHg 62%
    07:00 -1°C° 0 mm 1 mps 763 mmHg 61%
    08:00 0°C° 0 mm 1 mps 763 mmHg 54%
    09:00 +1°C° 0 mm 1 mps 763 mmHg 47%
    10:00 +2°C° 0 mm 1 mps 763 mmHg 39%
    11:00 +3°C° 0 mm 1 mps 762 mmHg 36%
    12:00 +3°C° 0 mm 0 mps 762 mmHg 33%
    13:00 +4°C° 0 mm 0 mps 762 mmHg 29%
    14:00 +3°C° 0 mm 0 mps 761 mmHg 31%
    15:00 +4°C° 0 mm 1 mps 761 mmHg 33%
    16:00 +4°C° 0 mm 1 mps 761 mmHg 35%
    17:00 +4°C° 0 mm 1 mps 761 mmHg 39%
    18:00 +3°C° 0 mm 1 mps 761 mmHg 42%
    19:00 +2°C° 0 mm 1 mps 761 mmHg 46%
    20:00 +2°C° 0 mm 1 mps 761 mmHg 47%
    21:00 +1°C° 0 mm 0 mps 761 mmHg 48%
    22:00 0°C° 0 mm 0 mps 761 mmHg 49%
    23:00 0°C° 0 mm 0 mps 761 mmHg 49%

    24 February, Sunday

    Time Temperature Precipitation Wind Pressure Humidity
    00:00 0°C° 0 mm 0 mps 761 mmHg 49%
    01:00 0°C° 0 mm 0 mps 761 mmHg 50%
    02:00 0°C° 0 mm 0 mps 761 mmHg 50%
    03:00 -1°C° 0 mm 0 mps 761 mmHg 51%
    04:00 -1°C° 0 mm 0 mps 761 mmHg 51%
    05:00 -1°C° 0 mm 0 mps 761 mmHg 51%
    06:00 -1°C° 0 mm 0 mps 761 mmHg 51%
    07:00 -1°C° 0 mm 0 mps 762 mmHg 51%
    08:00 0°C° 0 mm 0 mps 762 mmHg 48%
    09:00 +2°C° 0 mm 1 mps 762 mmHg 45%
    10:00 +3°C° 0 mm 1 mps 762 mmHg 42%
    11:00 +4°C° 0 mm 1 mps 762 mmHg 44%
    12:00 +5°C° 0 mm 1 mps 762 mmHg 46%
    13:00 +6°C° 0 mm 1 mps 762 mmHg 48%
    14:00 +6°C° 0 mm 1 mps 762 mmHg 51%
    15:00 +6°C° 0 mm 1 mps 762 mmHg 53%
    16:00 +6°C° 0 mm 1 mps 762 mmHg 56%
    17:00 +4°C° 0 mm 1 mps 762 mmHg 61%
    18:00 +3°C° 0 mm 1 mps 762 mmHg 65%
    19:00 +2°C° 0 mm 1 mps 762 mmHg 70%
    20:00 +2°C° 0 mm 1 mps 762 mmHg 71%
    21:00 +1°C° 0 mm 1 mps 762 mmHg 72%
    22:00 +1°C° 0 mm 1 mps 762 mmHg 73%
    23:00 +1°C° 0 mm 1 mps 762 mmHg 74%
    Show more